Location: Fazenda Monte Alegre
(4.8500°S, 38.0333°W)
Time: 21:45:13
(UTC+00:00)

Daily predictions for brighter satellites

Satellite Brightness Start Highest point End
(mag) Time Altitude Azimuth Time Altitude Azimuth Time Altitude Azimuth
BLOCK DM-SL R/B 3.4 20:35:30 10° WNW 20:39:44 63° N 21:06:45 11° E
BLOCK DM-SL R/B 3.4 20:35:30 10° WNW 20:39:45 63° N 21:06:44 11° E
BLOCK DM-SL R/B 3.4 20:35:31 10° WNW 20:39:45 63° N 21:06:44 11° E
BLOCK DM-SL R/B 3.4 20:35:30 10° WNW 20:39:45 63° N 21:06:45 11° E
BLOCK DM-SL R/B 3.4 20:35:30 10° WNW 20:39:45 63° N 21:06:46 11° E
BLOCK DM-SL R/B 3.4 20:35:30 10° WNW 20:39:45 63° N 21:06:42 11° E
BLOCK DM-SL R/B 4.4 20:39:54 10° WNW 20:43:52 61° N 20:56:16 10° E
FengYun 1-2 T 4.3 20:38:33 10° SSE 20:43:57 56° ENE 20:49:23 10° N
USA 215 3.8 20:39:17 10° ESE 20:45:15 38° NE 20:51:11 10° NNW
ATLAS 3B CENTAUR R/B 4.2 20:37:17 10° NW 20:45:36 64° NE 21:04:37 10° ESE
Okean O Rocket 2.8 20:43:41 10° S 20:48:00 50° WSW 20:52:17 10° NNW
GP-B 3.5 20:44:22 10° N 20:48:46 70° W 20:53:12 10° S
Cosmos 1891 Rocket 4.5 20:44:10 10° S 20:50:29 75° E 20:56:36 10° N
COSMOS 2455 4.1 20:46:52 10° SSE 20:50:59 19° ESE 20:55:04 10° ENE
RESURS DK-1 4.0 20:53:10 10° SE 20:55:37 15° ESE 20:58:04 10° ENE
MOS 1 Rocket 3.5 20:52:44 10° NNE 20:56:48 43° ESE 21:01:03 10° S
ARIANE 3 DEB 2.9 20:54:55 10° WNW 20:57:11 37° NNE 21:00:22 11° E
Cosmos 1939 Rocket 3.2 20:56:16 10° SSE 21:00:08 43° E 21:04:01 10° N
Tsikada Rocket 4.4 20:57:26 10° N 21:03:35 70° W 21:09:52 10° S
Fregat R/B Cluster 11 2.7 21:01:49 10° SSW 21:04:51 87° WNW 21:06:47 10° NNE
GPS 2-15 Rocket1 3.2 21:02:19 10° WSW 21:07:15 89° NNW 21:11:26 15° ENE
Cosmos 1900 4.3 21:03:13 10° NNW 21:08:17 70° ENE 21:13:17 10° SSE
Cosmos 1975 Rocket 3.2 21:04:14 10° NNE 21:08:22 47° E 21:12:35 10° SSE
OAO 3 Copernicus 4.3 21:04:23 10° NW 21:09:22 65° NE 21:13:50 13° ESE
CZ-2C R/B 3.5 21:05:31 10° NE 21:10:18 30° ESE 21:15:04 10° SSE
Meteor 1-21 4.2 21:10:41 10° N 21:16:13 67° E 21:21:51 10° SSE
Cosmos 2278 Rocket 2.3 21:11:20 10° S 21:16:50 52° ESE 21:22:18 10° NNE
SeaSat 1 3.6 21:15:50 10° S 21:20:32 46° WSW 21:25:14 10° NW
BLOCK DM-SL R/B 3.8 21:04:38 10° W 21:21:13 62° N 21:23:40 22° ENE
Okean 1 Rocket 3.2 21:18:49 10° S 21:23:08 49° E 21:27:26 10° NNE
Cosmos 2034 Rocket 4.1 21:18:52 10° S 21:25:15 83° W 21:31:37 10° N
CZ-4 R/B 4.3 21:21:21 10° SSE 21:25:29 84° ENE 21:29:34 10° N
CAT/Thesee 4.3 21:21:02 10° WSW 21:25:36 33° S 21:26:30 25° SE
Cosmos 1842 4.3 21:22:43 10° NNW 21:26:28 48° W 21:30:17 10° S
SL-24 R/B 4.2 21:23:56 10° S 21:28:19 75° W 21:32:34 10° NNW
ARIANE 5 DEB (SYLDA) 1.9 21:26:33 10° WNW 21:28:09 29° NNW 21:28:09 29° NNW
Cosmos 1707 3.0 21:25:38 10° NNE 21:29:14 41° E 21:32:53 10° SSE
Cosmos 1766 3.3 21:27:02 10° S 21:30:49 51° E 21:34:34 10° NNE
Helios 1A Rocket 3.1 21:26:46 10° S 21:30:49 73° WSW 21:34:52 10° NNW
GPS 2-18 Rocket1 3.0 21:28:33 10° WSW 21:32:16 74° NNW 21:33:31 38° NE
Ariane 44P Rocket 1.9 21:29:16 10° WNW 21:32:47 42° N 21:32:59 40° NNE
ASTRO E2 4.1 21:30:48 10° W 21:34:25 34° SSW 21:37:00 16° SSE
YAOGAN 1 2.5 21:31:03 10° SSE 21:35:19 57° ENE 21:39:33 10° N
Skynet4D Del rocket 4.2 21:28:21 10° WSW 21:36:09 79° SSE 21:40:00 29° ENE
USA 234 4.0 21:31:05 10° NNE 21:37:21 51° NW 21:43:41 10° SW
CSL-04 Debris 4.5 21:34:12 10° SSE 21:39:15 40° ENE 21:44:15 10° N
CSL-04 Rocket 4.0 21:36:03 10° SE 21:41:00 39° ENE 21:45:58 10° N
MINOTAUR IV R/B 4.5 21:39:23 10° NNW 21:43:53 82° ENE 21:48:28 10° SSE
CZ-2D R/B 4.5 21:45:37 10° S 21:49:19 43° WSW 21:53:00 10° NNW
CZ-4 R/B 1.9 21:46:30 10° S 21:50:39 62° WSW 21:54:49 10° NNW
Cosmos 2084 Rocket 3.4 21:46:52 10° NNW 21:51:25 82° ENE 21:52:55 42° SSE
Delta 7925 Rocket 4.2 21:47:53 10° W 21:52:26 44° SSW 21:54:43 28° SSE
Cosmos 1634 Rocket 3.8 21:46:52 10° S 21:52:59 66° E 21:59:04 10° NNE
GPS 2-04 Rocket1 2.8 21:49:59 10° WNW 21:54:09 73° SW 21:54:35 65° S
X-37B 1.7 21:51:49 10° WSW 21:54:34 44° WNW 21:54:34 44° WNW
Okean-O 3.7 21:53:13 10° S 21:57:27 44° WSW 22:01:40 10° NNW
Cosmos 1943 3.8 21:56:19 10° NNW 22:01:52 58° WSW 22:07:28 10° S
CZ-2C R/B 2.8 21:57:14 10° SSE 22:02:11 89° ENE 22:07:22 10° NNW
Cosmos 1025 Rocket 4.0 21:58:01 10° N 22:00:38 36° N 22:00:38 36° N
Milstar 3 3.0 21:59:36 10° WSW 22:06:22 88° NNW 22:09:40 42° ENE
Ariane H10 3.7 21:53:50 10° WNW 22:11:28 58° N 22:13:21 48° NE
Cosmos 1340 Rocket 4.0 22:07:56 10° SSW 22:10:30 36° SW 22:10:30 36° SW
ARIANE 5 R/B 3.7 22:19:54 10° WNW 22:21:05 16° WNW 22:21:05 16° WNW
CZ-4C R/B 3.7 22:19:41 10° WSW 22:23:18 24° WNW 22:25:32 17° NNW
Ariane H10 4.4 22:24:17 10° W 22:27:28 77° SW 22:27:28 77° SW
Centaur AC-146 4.4 22:03:21 10° WSW 22:30:51 36° SSW 22:32:31 32° SSE
ARIANE 44P R/B 3.6 22:30:45 10° W 23:15:38 - E 22:33:43 69° WNW
COSMOS 2455 4.2 22:31:18 10° SW 22:36:40 35° WNW 22:40:10 19° NNW
H-2A R/B 4.2 22:43:56 16° NW 22:43:56 16° NW 22:45:02 10° NNW
BREEZE-M DEB (TANK) 4.4 22:19:33 10° SW 22:40:54 86° NW 22:40:55 86° NW
ARIANE 5 R/B 3.9 22:24:11 10° W 22:44:56 37° NNW 22:45:35 36° N
ARIANE 5 R/B 3.8 22:41:23 10° W 22:57:11 56° WSW 22:57:11 56° WSW
